Boscobel, WI

8:12 AM CDT on August 25, 2016 (GMT -0500)
Boscobel

Weather History for KOVS - March, 2014

Change the Weather History Date:

Sunday, March 23, 2014

  Actual Average (KPDC) Record (KPDC)
Temperature  
Mean Temperature 22 °F -  
Max Temperature 30 °F 48 °F 73 °F (1963)
Min Temperature 14 °F 27 °F 3 °F (1974)
Degree Days  
Heating Degree Days 43    
Moisture  
Dew Point 4 °F    
Average Humidity 49    
Maximum Humidity 71    
Minimum Humidity 32    
Precipitation  
Precipitation 0.00 in - - ()
Sea Level Pressure  
Sea Level Pressure 30.49 in    
Wind  
Wind Speed 8 mph (NW)    
Max Wind Speed 13 mph    
Max Gust Speed 18 mph    
Visibility 10 miles    
Events      
Averages and records for this station are not official NWS values.
T = Trace of Precipitation, MM = Missing Value Source: NWS Daily Summary

Daily Weather History Graph

Daily Weather History Graph

Search for Another Location

Airport or City:

Trip Planner

Search our weather history database for the weather conditions in past years. The results will help you decide how hot, cold, wet, or windy it might be!

Date:

Astronomy

Mar. 23, 2014 Rise Set
Actual Time 7:00 AM CDT 7:18 PM CDT
Civil Twilight 6:32 AM CDT 7:47 PM CDT
Nautical Twilight 5:58 AM CDT 8:20 PM CDT
Astronomical Twilight 5:24 AM CDT 8:54 PM CDT
Moon 1:43 AM CDT (3/23) 11:34 AM CDT (3/23)
Length of Visible Light 13h 14m
Length of Day
12h 18m
Waning Gibbous, 54% of the Moon is Illuminated
Mar 23
Waning Gibbous
Mar 23
Last Quarter
Mar 30
New
Apr 7
First Quarter
Apr 15
Full

Hourly Weather History & Observations

Time (CDT) Temp. Windchill Dew Point Humidity Pressure Visibility Wind Dir Wind Speed Gust Speed Precip Events Conditions
12:53 AM 19.0 °F 6.1 °F 3.9 °F 52% 30.49 in 10.0 mi NNW 12.7 mph - N/A   Clear
1:53 AM 18.0 °F 6.9 °F 3.9 °F 54% 30.50 in 10.0 mi NNW 9.2 mph - N/A   Clear
2:53 AM 17.1 °F 7.6 °F 3.9 °F 56% 30.51 in 10.0 mi NNW 6.9 mph - N/A   Clear
3:53 AM 16.0 °F 7.4 °F 3.0 °F 57% 30.52 in 10.0 mi North 5.8 mph - N/A   Clear
4:53 AM 16.0 °F 6.3 °F 3.0 °F 57% 30.53 in 10.0 mi NNW 6.9 mph - N/A   Clear
5:53 AM 15.1 °F 7.7 °F 3.0 °F 59% 30.53 in 10.0 mi NNW 4.6 mph - N/A   Clear
6:53 AM 14.0 °F 6.5 °F 3.0 °F 62% 30.54 in 10.0 mi NW 4.6 mph - N/A   Clear
7:53 AM 16.0 °F 5.3 °F 3.9 °F 59% 30.55 in 10.0 mi North 8.1 mph - N/A   Clear
8:53 AM 18.0 °F 7.7 °F 3.0 °F 52% 30.54 in 10.0 mi NNW 8.1 mph - N/A   Clear
9:53 AM 19.9 °F 12.1 °F 1.9 °F 46% 30.55 in 10.0 mi NNW 5.8 mph - N/A   Clear
10:53 AM 21.9 °F 13.4 °F 3.0 °F 44% 30.53 in 10.0 mi WNW 6.9 mph - N/A   Clear
11:53 AM 24.1 °F 17.0 °F 3.0 °F 40% 30.51 in 10.0 mi West 5.8 mph - N/A   Clear
12:53 PM 26.1 °F 15.6 °F 3.0 °F 37% 30.50 in 10.0 mi West 11.5 mph - N/A   Partly Cloudy
1:53 PM 26.1 °F 20.5 °F 3.0 °F 37% 30.48 in 10.0 mi Variable 4.6 mph 18.4 mph N/A   Partly Cloudy
2:53 PM 28.0 °F 21.7 °F 3.9 °F 36% 30.45 in 10.0 mi West 5.8 mph - N/A   Clear
3:53 PM 30.0 °F 22.4 °F 3.0 °F 32% 30.44 in 10.0 mi NNW 8.1 mph - N/A   Partly Cloudy
4:53 PM 28.0 °F 17.5 °F 3.0 °F 34% 30.43 in 10.0 mi NW 12.7 mph - N/A   Clear
5:53 PM 27.0 °F 18.0 °F 3.9 °F 37% 30.44 in 10.0 mi West 9.2 mph - N/A   Clear
6:53 PM 25.0 °F 15.5 °F 3.9 °F 41% 30.43 in 10.0 mi WNW 9.2 mph - N/A   Clear
7:53 PM 23.0 °F 18.4 °F 5.0 °F 46% 30.43 in 10.0 mi WNW 3.5 mph - N/A   Clear
8:53 PM 21.9 °F 17.2 °F 6.1 °F 51% 30.43 in 10.0 mi NW 3.5 mph - N/A   Clear
9:53 PM 21.0 °F - 7.0 °F 55% 30.43 in 10.0 mi Calm Calm - N/A   Clear
10:53 PM 19.0 °F 13.9 °F 8.1 °F 62% 30.44 in 10.0 mi NW 3.5 mph - N/A   Clear
11:53 PM 16.0 °F - 8.1 °F 71% 30.44 in 10.0 mi Calm Calm - N/A   Clear